Flag for U.S.A. Weather past 2 weeks in Tacoma, Washington, U.S.A.

Now
45 °F

Clear.


Feels Like: 43 °F
Forecast: 33 / 52 °F
Wind: 5 mph from Northeast

Location: Tacoma Narrows Airport

Current Time: Feb 28, 2015 at 9:34:32 PM

Latest Report: Feb 28, 2015 at 8:53 PM


Visibility: 10 mi

Pressure: 30.22 "Hg

Humidity: 49%

Dew point: 27 °F

Location of TacomaLocation

Historic Weather in Tacoma — Graph

°F

Tacoma temperature yesterday

Maximum temperature yesterday: 48 °F (at 1:00 AM)
Minimum temperature yesterday: 46 °F (at 5:03 AM)
Average temperature yesterday: 47 °F

Past Weeks' High & Low Weather Summary

 TemperatureHumidityPressure
High58 °F (Feb 17, 2:53 PM)97% (Feb 25, 9:53 AM)30.47 "Hg (Feb 25, 9:53 AM)
Low35 °F (Feb 23, 4:53 AM)27% (Feb 22, 11:53 AM)29.71 "Hg (Feb 27, 5:53 AM)
Average47 °F75%30.25 "Hg
* Reported Feb 13 7:53 PM — Feb 28 7:53 PM, Tacoma, Weather by CustomWeather, © 2015

Note: Actual official high and low records may vary slightly from our data, if they occured in-between our weather recording intervals... More about our weather records

Advertising

Tacoma weather history for previous 24 hours

 ConditionsComfort  
Time TempWeatherWind HumidityBarometerVisibility
7:53 PM
Sat, Feb 28
42 °FClear.6 mph55%30.22 "Hg10 mi
6:53 PM47 °FClear.5 mph41%30.21 "Hg10 mi
5:53 PM49 °FClear.8 mph39%30.19 "Hg10 mi
4:53 PM51 °FSunny.8 mph31%30.18 "Hg10 mi
3:53 PM52 °FSunny.9 mph30%30.19 "Hg10 mi
2:53 PM52 °FSunny.14 mph34%30.19 "Hg10 mi
1:53 PM52 °FSunny.14 mph32%30.19 "Hg10 mi
12:53 PM52 °FSunny.13 mph37%30.19 "Hg10 mi
11:53 AM50 °FSunny.15 mph36%30.20 "Hg10 mi
10:53 AM49 °FSunny.18 mph39%30.19 "Hg10 mi
9:53 AM48 °FSunny.14 mph44%30.18 "Hg10 mi
8:53 AM46 °FSunny.13 mph48%30.16 "Hg10 mi
7:53 AM44 °FSunny.12 mph53%30.14 "Hg10 mi
6:53 AM43 °FSunny.13 mph56%30.10 "Hg10 mi
5:53 AM43 °FClear.13 mph58%30.08 "Hg10 mi
4:53 AM44 °FClear.12 mph58%30.05 "Hg10 mi
3:53 AM43 °FClear.13 mph58%30.03 "Hg10 mi
2:53 AM44 °FClear.13 mph58%30.01 "Hg10 mi
1:53 AM45 °FClear.13 mph58%29.99 "Hg10 mi
12:53 AM46 °FPassing clouds.15 mph63%29.96 "Hg10 mi
11:53 PM
Fri, Feb 27
46 °FClear.13 mph66%29.93 "Hg10 mi
10:53 PM47 °FPassing clouds.8 mph71%29.91 "Hg10 mi
9:53 PM48 °FMostly cloudy.8 mph71%29.89 "Hg10 mi
Weather by CustomWeather, © 2015

See weather overviewHow to use our weather pages